New Orleans Lakefront, LA

7:53 PM CST on November 16, 2019 (GMT -0600)
Lakefront

Weather History for KNEW - September, 2019

Change the Weather History Date:

Thursday, September 19, 2019

  Actual Average Record
Temperature  
Mean Temperature 84 °F 79 °F  
Max Temperature 93 °F 87 °F 97 °F (2018)
Min Temperature 75 °F 71 °F 56 °F (1961)
Degree Days  
Heating Degree Days 0 0  
Month to date heating degree days 0 0  
Since 1 July heating degree days 0 0  
Cooling Degree Days 19 14  
Month to date cooling degree days 409 304  
Year to date cooling degree days 3050 2550  
Growing Degree Days 36 (Base 50)    
Moisture  
Dew Point 73 °F    
Average Humidity 73    
Maximum Humidity 94    
Minimum Humidity 52    
Precipitation  
Precipitation 0.00 in 0.15 in 1.69 in (2011)
Month to date precipitation 0.02 3.43  
Year to date precipitation 46.78 47.64  
Snow  
Snow 0.00 in - - ()
Month to date snowfall 0.0  
Since 1 July snowfall 0.0  
Since 1 September snowfall 0.0  
Snow Depth 0.00 in    
Sea Level Pressure  
Sea Level Pressure 29.97 in    
Wind  
Wind Speed 6 mph (ESE)    
Max Wind Speed 14 mph    
Max Gust Speed 16 mph    
Visibility 10 miles    
Events      
T = Trace of Precipitation, MM = Missing Value Source: NWS Daily Summary

Daily Weather History Graph

Daily Weather History Graph

Search for Another Location

Airport or City:

Astronomy

Sep. 19, 2019 Rise Set
Actual Time 6:46 AM CDT 7:00 PM CDT
Civil Twilight 6:22 AM CDT 7:24 PM CDT
Nautical Twilight 5:54 AM CDT 7:52 PM CDT
Astronomical Twilight 5:26 AM CDT 8:20 PM CDT
Moon 10:31 PM CDT (9/19) 11:29 AM CDT (9/19)
Length of Visible Light 13h 01m
Length of Day
12h 13m
Waning Gibbous, 74% of the Moon is Illuminated
Sep 19
Waning Gibbous
Sep 21
Last Quarter
Sep 28
New
Oct 5
First Quarter
Oct 13
Full

Hourly Weather History & Observations

Time (CDT) Temp. Heat Index Dew Point Humidity Pressure Visibility Wind Dir Wind Speed Gust Speed Precip Events Conditions
12:53 AM 82.0 °F 89.4 °F 75.9 °F 82% 29.94 in 10.0 mi Calm Calm - N/A   Clear
1:53 AM 81.0 °F 87.3 °F 75.9 °F 85% 29.93 in 10.0 mi East 3.5 mph - N/A   Clear
2:53 AM 81.0 °F 87.3 °F 75.9 °F 85% 29.93 in 10.0 mi East 3.5 mph - N/A   Clear
3:53 AM 81.0 °F 87.3 °F 75.9 °F 85% 29.92 in 10.0 mi East 8.1 mph - N/A   Clear
4:38 AM 81.0 °F 86.7 °F 75.0 °F 82% 29.95 in 10.0 mi ENE 3.5 mph - N/A   Mostly Cloudy
4:53 AM 81.0 °F 86.7 °F 75.0 °F 82% 29.94 in 10.0 mi East 6.9 mph - N/A   Overcast
5:50 AM 80.6 °F 86.2 °F 75.2 °F 84% 29.96 in 10.0 mi East 9.2 mph - N/A   Mostly Cloudy
5:53 AM 80.1 °F 85.1 °F 75.0 °F 85% 29.95 in 10.0 mi East 9.2 mph - N/A   Mostly Cloudy
6:53 AM 80.1 °F 84.5 °F 73.9 °F 81% 29.96 in 10.0 mi East 5.8 mph - N/A   Partly Cloudy
7:53 AM 81.0 °F 86.7 °F 75.0 °F 82% 29.97 in 10.0 mi ESE 4.6 mph - N/A   Clear
8:53 AM 82.9 °F 90.2 °F 75.0 °F 77% 29.99 in 10.0 mi ESE 3.5 mph - N/A   Partly Cloudy
9:53 AM 86.0 °F 95.1 °F 75.0 °F 70% 30.00 in 10.0 mi East 4.6 mph - N/A   Scattered Clouds
10:53 AM 86.0 °F 93.8 °F 73.9 °F 67% 30.01 in 10.0 mi ESE 6.9 mph - N/A   Mostly Cloudy
11:53 AM 89.1 °F 96.0 °F 72.0 °F 57% 30.00 in 10.0 mi ESE 6.9 mph - N/A   Scattered Clouds
12:53 PM 89.1 °F 98.0 °F 73.9 °F 61% 29.98 in 10.0 mi East 10.4 mph - N/A   Scattered Clouds
1:53 PM 90.0 °F 96.9 °F 72.0 °F 55% 29.96 in 10.0 mi SSE 8.1 mph - N/A   Scattered Clouds
2:53 PM 91.0 °F 94.3 °F 66.9 °F 45% 29.96 in 10.0 mi ESE 10.4 mph - N/A   Clear
3:53 PM 89.1 °F 92.1 °F 66.9 °F 48% 29.95 in 10.0 mi SE 11.5 mph - N/A   Clear
4:53 PM 89.1 °F 91.3 °F 66.0 °F 46% 29.96 in 10.0 mi SE 11.5 mph - N/A   Clear
5:53 PM 88.0 °F 90.7 °F 66.9 °F 49% 29.96 in 10.0 mi SE 9.2 mph - N/A   Clear
6:53 PM 84.9 °F 91.4 °F 73.0 °F 67% 29.98 in 10.0 mi ESE 11.5 mph - N/A   Clear
7:53 PM 84.0 °F 90.2 °F 73.0 °F 69% 29.99 in 10.0 mi SE 11.5 mph - N/A   Clear
8:53 PM 84.0 °F 91.9 °F 75.0 °F 74% 30.01 in 10.0 mi ESE 9.2 mph - N/A   Clear
9:53 PM 82.9 °F 89.4 °F 73.9 °F 74% 30.02 in 10.0 mi ESE 9.2 mph - N/A   Clear
10:53 PM 82.9 °F 90.2 °F 75.0 °F 77% 30.01 in 10.0 mi SE 12.7 mph - N/A   Clear
11:53 PM 82.0 °F 88.6 °F 75.0 °F 79% 30.01 in 10.0 mi ESE 10.4 mph - N/A   Clear